Location: ????????
(55.5667°N, 37.5833°E)
Time: 06:45:38
(UTC+00:00)

USA 234 - Pass Details

Date: 14 April 2026
Orbit: 1102 x 1106 km, 123.0° (Epoch: 4 January)

Event Time Altitude Azimuth Distance (km) Brightness Sun altitude
Rises 20:37:47 0° 88° (E) 3,922 6.0 -23.9°
Reaches altitude 10° 20:40:16 10° 87° (E) 2,965 5.4 -24.0°
Maximum altitude 20:46:48 80° 3° (N) 1,126 3.3 -24.2°
Drops below altitude 10° 20:53:22 10° 277° (W) 2,968 5.7 -24.3°
Sets 20:55:51 0° 277° (W) 3,926 6.4 -24.4°
